Theta_e
308 307 307 306 305 305 304 310 311 311 308 308 308 307 306 305 306 307 307 307 307 305
307 306 305 305 305 309 310 309 309 310 309 307 307 308 308 307 306 305 305 307 308 307
306 306 305 306 308 307 307 308 309 309 309 307 307 307 307 306 306 305 306 306 306 306
306 305 305 304 304 307 307 307 308 308 308 307 307 307 306 306 306 305 305 305 306 304
304 305 306 302 306 307 306 307 308 307 306 307 307 307 307 306 307 305 304 305 304 307
303 305 305 305 306 306 306 307 307 306 306 306 306 306 307 307 307 306 306 305 302 307
302 305 305 305 306 306 307 306 306 307 306 306 306 307 307 308 306 305 306 304 303 308
302 306 306 306 306 305 306 306 307 306 306 306 307 307 306 307 305 302 302 303 308 309
304 305 305 306 305 305 305 306 306 306 306 306 307 305 306 306 304 304 301 303 307 308
304 305 305 306 305 305 305 306 305 305 306 305 305 303 302 305 302 301 300 304 302 306
304 304 305 304 304 305 305 305 305 305 305 304 305 303 301 303 298 300 302 305 303 303
304 304 304 303 304 304 304 305 305 304 299 303 302 300 300 300 303 304 306 306 305 303
305 304 303 304 304 304 304 305 304 304 300 305 302 298 296 300 302 302 305 305 303 302
305 304 304 304 303 302 302 303 303 304 304 303 300 298 299 299 303 305 302 303 299 299
Wind_Speed
3 3 2 2 2 3 3 4 5 4 4 5 3 4 5 4 5 5 4 5 4 3
1 2 3 3 3 3 4 4 6 5 5 4 5 5 5 5 6 5 5 6 4 4
3 3 2 4 5 5 5 4 6 6 5 6 5 6 6 5 5 5 5 4 6 6
3 3 4 5 6 6 7 6 6 6 7 8 7 7 6 5 6 6 5 6 6 7
1 1 5 6 6 7 8 7 5 7 8 8 8 7 6 6 5 5 6 7 5 6
2 4 7 6 6 7 8 7 7 7 7 8 8 7 6 6 5 5 5 6 6 5
4 5 6 6 6 6 7 7 8 8 8 8 7 6 5 6 3 4 5 5 4 3
5 5 6 6 6 6 7 7 8 8 7 7 5 3 4 2 2 4 5 3 1 3
5 6 6 6 6 7 7 7 7 7 6 5 3 5 4 1 2 4 4 3 2 3
6 6 6 7 7 7 7 7 7 7 5 4 4 4 1 1 1 3 3 1 1 1
7 7 6 7 6 7 6 6 6 6 4 3 4 3 4 4 1 3 2 1 3 3
8 7 7 7 7 7 7 6 3 3 3 4 4 5 5 4 3 4 5 4 5 5
8 5 6 7 7 6 6 5 3 3 2 6 5 6 7 5 2 4 4 5 6 10
5 6 5 6 5 5 5 4 3 4 4 6 4 4 5 5 4 4 3 3 4 4
Wind_Direction
168 202 245 264 280 276 252 277 281 303 306 306 320 313 298 274 272 273 261 259 233 232
220 345 321 310 256 256 275 288 310 299 292 269 273 268 277 278 281 277 275 264 259 259
16 55 339 302 298 294 286 298 300 297 271 271 267 281 256 257 256 267 270 271 267 266
67 13 299 311 308 311 310 295 294 295 288 291 285 284 258 250 253 259 268 274 261 267
53 358 348 300 303 306 302 295 284 299 298 294 287 277 266 265 267 269 279 275 285 272
294 14 312 295 294 304 309 303 302 298 291 292 291 283 278 267 255 264 269 280 284 289
310 324 311 296 297 303 310 309 305 301 300 290 293 288 287 287 242 277 289 302 297 304
300 322 305 300 301 306 305 308 306 304 303 297 289 278 313 312 319 308 316 309 138 249
328 316 311 298 317 307 306 308 310 315 309 321 311 331 313 208 297 336 345 337 113 234
314 312 317 315 318 310 313 308 309 317 312 338 322 335 125 114 330 335 328 357 89 125
316 318 316 326 315 311 310 306 308 315 326 15 339 111 94 76 358 312 335 126 151 125
311 314 324 323 317 315 305 304 306 324 28 76 49 79 79 48 3 47 45 57 75 91
313 307 322 316 321 328 325 320 340 31 57 92 80 49 47 15 100 74 59 50 55 47
317 318 319 322 340 320 326 339 29 79 74 78 84 44 31 33 103 98 82 63 44 38